User: anonymous   Login
Location: Newark
(0.5300°S, 127.4800°E)
Time: 04:28:04
(UTC+00:00)
Language:

Tiros 1 despin weight - Orbit

View from above orbital plane
View from above orbital plane
View from above satellite
View from above satellite

Ground track
Ground track

The orbit data is extracted from the following two-line orbital elements,

1   115U 60002D   19260.13692272 -.00000007  00000-0  26381-4 0  9997
2   115  48.1662 153.2079 0033859 120.0293 240.3985 14.83475286172243
Epoch (UTC): 17 September 2019 03:17:10
Eccentricity: 0.0033859
inclination: 48.1662°
perigee height: 594 km
apogee height: 642 km
right ascension of ascending node: 153.2079°
argument of perigee: 120.0293°
revolutions per day: 14.83475286
mean anomaly at epoch: 240.3985°
orbit number at epoch: 17224

The dashed part of the orbit path shows where the satellite is in the earth's shadow,  

DLR